DW6368 Weather Reports


Display with metric or nautical units.
time (UTC)temp
F
wind
direction
speed
MPH
gust
MPH
rain 1hr
in
rain 24hr
in
rain mn
in
humidity
%
barometer
mb
20260904000325 79 235 3.0 7.0 0.00 0.00 0.00 70 1010.5
20260903235305 79 228 2.0 9.0 0.00 0.00 0.00 70 1010.5
20260903234303 80 250 4.0 11.0 0.00 0.00 0.00 69 1010.6
20260903233303 80 219 2.0 11.0 0.00 0.00 0.00 69 1010.8
20260903232305 81 240 3.0 9.0 0.00 0.00 0.00 69 1010.8
20260903231303 81 246 3.0 7.0 0.00 0.00 0.00 69 1010.9
20260903230303 81 213 2.0 9.0 0.00 0.00 0.00 70 1010.9
20260903225324 81 235 4.0 9.0 0.00 0.00 0.00 68 1011.0
20260903224324 81 234 4.0 9.0 0.00 0.00 0.00 68 1011.2
20260903223345 81 262 3.0 10.0 0.00 0.00 0.00 70 1011.2
20260903222305 81 241 2.0 10.0 0.00 0.00 0.00 70 1011.3
20260903221303 80 247 3.0 9.0 0.00 0.00 0.00 70 1011.3
20260903220303 80 242 3.0 10.0 0.00 0.00 0.00 68 1011.4
20260903214324 81 240 3.0 10.0 0.00 0.00 0.00 69 1011.7
20260903213303 81 235 4.0 11.0 0.00 0.00 0.00 70 1011.6
20260903212306 81 218 2.0 8.0 0.00 0.00 0.00 70 1011.5
20260903211303 81 230 3.0 7.0 0.00 0.00 0.00 69 1011.6
20260903210303 81 213 2.0 7.0 0.00 0.00 0.00 71 1011.6
20260903205306 81 212 2.0 7.0 0.00 0.00 0.00 70 1011.7
20260903204303 81 189 2.0 6.0 0.00 0.00 0.00 71 1011.8
20260903203345 81 229 4.0 9.0 0.00 0.00 0.00 69 1012.0
20260903202306 81 206 2.0 7.0 0.00 0.00 0.00 71 1012.1
20260903201303 81 240 4.0 10.0 0.00 0.00 0.00 70 1012.2
20260903200303 81 231 2.0 10.0 0.00 0.00 0.00 70 1012.2
20260903195306 80 200 2.0 7.0 0.00 0.00 0.00 70 1012.3
20260903194303 80 240 2.0 7.0 0.00 0.00 0.00 70 1012.4
20260903193302 81 182 2.0 9.0 0.00 0.00 0.00 69 1012.5
20260903192306 80 208 1.0 6.0 0.00 0.00 0.00 71 1012.6
20260903191303 80 233 2.0 7.0 0.00 0.00 0.00 69 1012.7
20260903190303 79 188 2.0 7.0 0.00 0.00 0.00 71 1012.8
20260903185306 79 198 2.0 9.0 0.00 0.00 0.00 72 1013.1
20260903184303 78 223 3.0 7.0 0.00 0.00 0.00 71 1013.1
20260903183303 78 262 3.0 6.0 0.00 0.00 0.00 70 1013.2
20260903182324 79 231 3.0 5.0 0.00 0.00 0.00 69 1013.4
20260903181302 79 275 2.0 5.0 0.00 0.00 0.00 69 1013.3
20260903180303 78 215 2.0 9.0 0.00 0.00 0.00 71 1013.4
20260903175305 77 212 2.0 7.0 0.00 0.00 0.00 73 1013.4
20260903174303 75 232 2.0 6.0 0.00 0.00 0.00 74 1013.5
20260903173303 76 216 1.0 5.0 0.00 0.00 0.00 75 1013.4
20260903172306 76 233 2.0 7.0 0.00 0.00 0.00 73 1013.4
20260903171303 77 166 2.0 5.0 0.00 0.00 0.00 74 1013.4
20260903170303 77 214 2.0 3.0 0.00 0.00 0.00 74 1013.4
20260903165345 75 191 1.0 3.0 0.00 0.00 0.00 75 1013.4
20260903164303 75 222 1.0 4.0 0.00 0.00 0.00 76 1013.3
20260903163324 74 193 1.0 4.0 0.00 0.00 0.00 76 1013.4
20260903162306 74 226 2.0 6.0 0.00 0.00 0.00 76 1013.3
20260903161303 73 225 1.0 3.0 0.00 0.00 0.00 78 1013.4
20260903160303 72 219 1.0 2.0 0.00 0.00 0.00 82 1013.4
20260903155306 71 53 1.0 3.0 0.00 0.00 0.00 81 1013.3
20260903154302 70 77 1.0 5.0 0.00 0.00 0.00 83 1013.4
20260903153303 70 125 1.0 2.0 0.00 0.00 0.00 83 1013.4
20260903152306 69 110 1.0 2.0 0.00 0.00 0.00 84 1013.4
20260903151303 68 155 1.0 2.0 0.00 0.00 0.00 85 1013.4
20260903150303 68 98 1.0 3.0 0.00 0.00 0.00 85 1013.3
20260903145306 67 118 1.0 3.0 0.00 0.00 0.00 85 1013.4
20260903144303 66 161 1.0 2.0 0.00 0.00 0.00 85 1013.3
20260903143303 66 108 1.0 3.0 0.00 0.00 0.00 84 1013.2
20260903142306 65 119 1.0 2.0 0.00 0.00 0.00 86 1013.1
20260903141303 65 156 1.0 4.0 0.00 0.00 0.00 87 1013.0
20260903140302 64 129 1.0 2.0 0.00 0.00 0.00 90 1012.8
20260903135324 64 45 0.0 1.0 0.00 0.00 0.00 91 1012.7
20260903134323 63 343 0.0 1.0 0.00 0.00 0.00 90 1012.8
20260903133303 63 352 0.0 3.0 0.00 0.00 0.00 90 1012.6
20260903132324 63 50 0.0 1.0 0.00 0.00 0.00 92 1012.6
20260903131303 63 338 0.0 1.0 0.00 0.00 0.00 91 1012.6
20260903130303 64 51 0.0 1.0 0.00 0.00 0.00 91 1012.6
20260903125305 64 308 0.0 1.0 0.00 0.00 0.00 90 1012.6
20260903124324 64 36 0.0 2.0 0.00 0.00 0.00 90 1012.6
20260903123302 64 101 0.0 2.0 0.00 0.00 0.00 90 1012.6
20260903122305 64 123 1.0 2.0 0.00 0.00 0.00 91 1012.5
20260903121303 64 49 0.0 2.0 0.00 0.00 0.00 91 1012.6
20260903120304 64 84 0.0 1.0 0.00 0.00 0.00 91 1012.5
20260903115305 64 35 1.0 2.0 0.00 0.00 0.00 91 1012.6
20260903114303 64 47 1.0 2.0 0.00 0.00 0.00 92 1012.7
20260903113324 64 117 0.0 1.0 0.00 0.00 0.00 92 1012.8
20260903112324 64 146 0.0 1.0 0.00 0.00 0.00 92 1012.8
20260903111303 64 51 0.0 1.0 0.00 0.00 0.00 91 1012.9
20260903110303 64 51 0.0 1.0 0.00 0.00 0.00 91 1012.9
20260903105305 64 79 0.0 1.0 0.00 0.00 0.00 92 1013.0
20260903104324 64 41 0.0 2.0 0.00 0.00 0.00 92 1013.0
20260903103302 64 118 0.0 2.0 0.00 0.00 0.00 93 1013.1
20260903102324 63 92 0.0 1.0 0.00 0.00 0.00 93 1013.1
20260903101302 63 59 0.0 1.0 0.00 0.00 0.00 94 1013.0
20260903100303 64 51 0.0 2.0 0.00 0.00 0.00 94 1013.1
20260903095305 64 100 0.0 2.0 0.00 0.00 0.00 94 1013.2
20260903094303 64 50 0.0 1.0 0.00 0.00 0.00 94 1013.2
20260903093303 64 35 0.0 1.0 0.00 0.00 0.00 95 1013.3
20260903092324 64 86 1.0 2.0 0.00 0.00 0.00 95 1013.4
20260903091303 64 34 0.0 1.0 0.00 0.00 0.00 94 1013.5
20260903090303 64 60 0.0 1.0 0.00 0.00 0.00 94 1013.6
20260903085305 64 42 0.0 1.0 0.00 0.00 0.00 94 1013.6
20260903084358 64 51 0.0 0.0 0.00 0.00 0.00 93 1013.7
20260903083302 65 153 0.0 1.0 0.00 0.00 0.00 93 1013.8
20260903082306 65 178 0.0 1.0 0.00 0.00 0.00 93 1013.7
20260903081302 65 51 0.0 1.0 0.00 0.00 0.00 93 1013.8
20260903080316 65 67 0.0 1.0 0.00 0.00 0.00 93 1013.8
20260903075306 66 43 0.0 1.0 0.00 0.00 0.00 93 1014.0
20260903074303 66 46 0.0 1.0 0.00 0.00 0.00 93 1014.0
20260903073302 66 42 0.0 1.0 0.00 0.00 0.00 93 1013.7
20260903072306 66 51 0.0 2.0 0.00 0.00 0.00 93 1013.8
20260903071324 66 164 0.0 1.0 0.00 0.00 0.00 92 1013.8
20260903070302 66 189 0.0 1.0 0.00 0.00 0.00 92 1013.9
20260903065305 66 225 0.0 1.0 0.00 0.00 0.00 91 1013.8
20260903064303 67 181 0.0 2.0 0.00 0.00 0.00 91 1013.8
20260903063303 67 60 0.0 1.0 0.00 0.00 0.00 91 1013.7
20260903062306 67 215 0.0 1.0 0.00 0.00 0.00 90 1013.6
20260903061302 67 172 0.0 2.0 0.00 0.00 0.00 89 1013.6
20260903060303 67 176 0.0 2.0 0.00 0.00 0.00 88 1013.7
20260903055306 67 186 0.0 1.0 0.00 0.00 0.00 87 1013.6
20260903054303 67 152 0.0 1.0 0.00 0.00 0.00 85 1013.6
20260903053324 67 185 0.0 2.0 0.00 0.00 0.00 85 1013.5
20260903052306 67 175 0.0 2.0 0.00 0.00 0.00 84 1013.7
20260903050311 67 145 0.0 1.0 0.00 0.00 0.00 81 1013.5
20260903045306 68 9 0.0 1.0 0.00 0.00 0.00 80 1013.5
20260903044302 68 212 0.0 1.0 0.00 0.00 0.00 77 1013.4
20260903043324 69 204 0.0 1.0 0.00 0.00 0.00 76 1013.4
20260903041303 70 9 0.0 3.0 0.00 0.00 0.00 75 1013.5
20260903040302 70 267 1.0 3.0 0.00 0.00 0.00 75 1013.3
20260903034302 70 292 1.0 3.0 0.00 0.00 0.00 76 1013.1
20260903033303 70 268 2.0 4.0 0.00 0.00 0.00 76 1013.0
20260903031323 71 274 2.0 5.0 0.00 0.00 0.00 74 1012.9
20260903030324 72 280 2.0 6.0 0.00 0.00 0.00 73 1012.9
20260903025305 72 280 2.0 4.0 0.00 0.00 0.00 72 1013.0
20260903024303 73 294 2.0 5.0 0.00 0.00 0.00 70 1012.8
20260903023303 73 277 2.0 5.0 0.00 0.00 0.00 68 1012.8
20260903022324 73 308 2.0 6.0 0.00 0.00 0.00 68 1012.7
20260903021324 74 267 2.0 5.0 0.00 0.00 0.00 68 1012.6
20260903020303 75 295 2.0 5.0 0.00 0.00 0.00 67 1012.6
20260903015305 76 304 1.0 7.0 0.00 0.00 0.00 66 1012.6
20260903014324 76 302 2.0 5.0 0.00 0.00 0.00 67 1012.6
20260903013319 76 292 3.0 7.0 0.00 0.00 0.00 68 1012.6
20260903012306 77 300 3.0 7.0 0.00 0.00 0.00 67 1012.6
20260903011302 77 298 5.0 9.0 0.00 0.00 0.00 65 1012.5
20260903010324 78 300 4.0 11.0 0.00 0.00 0.00 62 1012.5
20260903005306 78 302 3.0 12.0 0.00 0.00 0.00 63 1012.4
20260903004303 79 283 4.0 12.0 0.00 0.00 0.00 61 1012.4
20260903003303 79 292 5.0 11.0 0.00 0.00 0.00 60 1012.4
20260903002306 80 304 4.0 9.0 0.00 0.00 0.00 57 1012.3
20260903001303 81 301 5.0 13.0 0.00 0.00 0.00 57 1012.4